This is the latest recevied weather packets stored in our database for station/object KM5VY. If no packets are shown the sender has not sent any weather packets the latest 10 day(s).
| Time | Temp. | Humidity | Pressure | Rain* | Wind** | Luminosity | Snow |
|---|---|---|---|---|---|---|---|
| 1777594040 | 15° C | 37% | 1012.9 hPa | 0 mm | - | - | - |
| 1777593439 | 15.56° C | 36% | 1012.9 hPa | 0 mm | - | - | - |
| 1777592838 | 15.56° C | 36% | 1012.9 hPa | 0 mm | - | - | - |
| 1777592237 | 15.56° C | 35% | 1012.9 hPa | 0 mm | - | - | - |
| 1777591637 | 16.11° C | 35% | 1012.9 hPa | 0 mm | - | - | - |
| 1777591035 | 16.11° C | 35% | 1012.9 hPa | 0 mm | - | - | - |
| 1777590434 | 16.67° C | 34% | 1012.9 hPa | 0 mm | - | - | - |
| 1777589833 | 16.67° C | 33% | 1012.5 hPa | 0 mm | - | - | - |
| 1777589232 | 16.67° C | 32% | 1012.9 hPa | 0 mm | - | - | - |
| 1777588631 | 17.22° C | 31% | 1012.9 hPa | 0 mm | - | - | - |
| 1777588030 | 17.78° C | 30% | 1012.9 hPa | 0 mm | - | - | - |
| 1777587430 | 17.78° C | 29% | 1012.9 hPa | 0 mm | - | - | - |
| 1777587085 | 18.33° C | 29% | 1012.9 hPa | 0 mm | - | - | - |
| 1777586828 | 18.33° C | 29% | 1012.9 hPa | 0 mm | - | - | - |
| 1777586228 | 18.89° C | 28% | 1012.9 hPa | 0 mm | - | - | - |
| 1777585025 | 19.44° C | 27% | 1013.5 hPa | 0 mm | - | - | - |
| 1777584425 | 20° C | 28% | 1013.5 hPa | 0 mm | - | - | - |
| 1777583823 | 20.56° C | 28% | 1013.5 hPa | 0 mm | - | - | - |
| 1777583431 | 21.11° C | 27% | 1013.5 hPa | 0 mm | - | - | - |
| 1777583222 | 21.11° C | 27% | 1013.5 hPa | 0 mm | - | - | - |
| 1777582621 | 21.11° C | 26% | 1013.9 hPa | 0 mm | - | - | - |
| 1777581420 | 21.67° C | 21% | 1013.9 hPa | 0 mm | - | - | - |
| 1777580818 | 21.67° C | 21% | 1014.2 hPa | 0 mm | - | - | - |
| 1777580218 | 21.11° C | 22% | 1013.9 hPa | 0 mm | - | - | - |
| 1777579015 | 20° C | 30% | 1013.9 hPa | 0 mm | - | - | - |
* Rain latest hour (hover to see other rain measurements)
** Current wind speed in m/s (hover to see current wind gust speed)